User: anonymous   Login
Location: Molveno
(46.1500°N, 10.9667°E)
Time: 10:36:14
(UTC+00:00)
Language:

Cosmos 2322 - Orbit

View from above orbital plane
View from above orbital plane
View from above satellite
View from above satellite

Ground track
Ground track

The orbit data is extracted from the following two-line orbital elements,

1 23704U 95058A   20270.85646558  .00000232  00000-0  14858-3 0  9997
2 23704  70.9876  53.4020 0007751  76.4968 283.7017 14.13431093285067
Epoch (UTC): 26 September 2020 20:33:18
Eccentricity: 0.0007751
inclination: 70.9876°
perigee height: 842 km
apogee height: 853 km
right ascension of ascending node: 53.4020°
argument of perigee: 76.4968°
revolutions per day: 14.13431093
mean anomaly at epoch: 283.7017°
orbit number at epoch: 28506

The dashed part of the orbit path shows where the satellite is in the earth's shadow,  

DLR